This demonstration page uses our WeatherBlox Daily Observations layout. Learn more.

Left ArrowRight Arrow

Hourly Observations for February 18, 2020

Temp ( °F °C ) Dew Point ( °F °C ) Humidity (%) Winds ( mph kmh ) Pressure ( in mb ) Visibility ( mi km ) Precip ( " mm )
12:56 am 00:56 Clear 25 -3.9 22 -5.6 88 88 NNW 7 11 30.26 1025 10 16 0.00 0.00
1:56 am 01:56 Clear 24 -4.4 21 -6.1 88 88 Calm 30.29 1026 10 16 0.00 0.00
2:56 am 02:56 Clear 23 -5 20 -6.7 88 88 WNW 5 7 30.28 1026 10 16 0.00 0.00
3:56 am 03:56 Clear 20 -6.7 18 -7.8 92 92 WNW 5 7 30.30 1026 10 16 0.00 0.00
4:56 am 04:56 Clear 19 -7.2 17 -8.3 92 92 WNW 5 7 30.33 1027 10 16 0.00 0.00
5:56 am 05:56 Clear 19 -7.2 17 -8.3 92 92 WNW 6 9 30.35 1028 10 16 0.00 0.00
6:56 am 06:56 Clear 18 -7.8 16 -8.9 92 92 NW 7 11 30.38 1029 10 16 0.00 0.00
7:56 am 07:56 Partly Cloudy 20 -6.7 18 -7.8 92 92 NW 7 11 30.40 1029 10 16 0.00 0.00
8:56 am 08:56 Mostly Sunny 24 -4.4 21 -6.1 88 88 WNW 5 7 30.42 1030 10 16 0.00 0.00
9:56 am 09:56 Mostly Sunny 33 0.6 27 -2.8 78 78 WNW 8 13 30.42 1030 10 16 0.00 0.00
10:56 am 10:56 Sunny 34 1.1 21 -6.1 59 59 NNW 5 7 30.43 1030 10 16 0.00 0.00
11:56 am 11:56 Sunny 37 2.8 20 -6.7 50 50 VRB 6 9 30.42 1030 10 16 0.00 0.00
12:56 pm 12:56 Sunny 39 3.9 19 -7.2 45 45 WSW 8 13 30.40 1030 10 16 0.00 0.00
1:56 pm 13:56 Sunny 40 4.4 18 -7.8 41 41 VRB 6 9 30.38 1029 10 16 0.00 0.00
2:56 pm 14:56 Sunny 41 5 16 -8.9 36 36 SW 6 9 30.37 1029 10 16 0.00 0.00
3:56 pm 15:56 Mostly Cloudy 42 5.6 18 -7.8 38 38 Calm 30.37 1029 10 16 0.00 0.00
4:56 pm 16:56 Mostly Cloudy 42 5.6 18 -7.8 38 38 VRB 5 7 30.36 1028 10 16 0.00 0.00
5:56 pm 17:56 Sunny 34 1.1 18 -7.8 52 52 S 8 13 30.38 1029 10 16 0.00 0.00
6:56 pm 18:56 Clear 30 -1.1 20 -6.7 66 66 SSE 7 11 30.40 1030 10 16 0.00 0.00
7:56 pm 19:56 Clear 29 -1.7 20 -6.7 69 69 S 8 13 30.41 1030 10 16 0.00 0.00
8:56 pm 20:56 Clear 29 -1.7 19 -7.2 66 66 S 7 11 30.41 1030 10 16 0.00 0.00
9:56 pm 21:56 Clear 28 -2.2 18 -7.8 66 66 S 6 9 30.41 1030 10 16 0.00 0.00
10:56 pm 22:56 Clear 23 -5 21 -6.1 92 92 NNE 12 19 30.46 1031 10 16 0.00 0.00
11:56 pm 23:56 Clear 20 -6.7 18 -7.8 92 92 N 9 15 30.48 1032 10 16 0.00 0.00

Powered by AerisWeather